Location: Potomac
(46.8816°N, 113.5795°W)
Time: 17:10:00
(UTC+00:00)

UKube-1 - Pass Details

Date: 30 June 2022
Orbit: 608 x 615 km, 98.4° (Epoch: 18 August)

Event Time Altitude Azimuth Distance (km) Brightness Sun altitude
Rises 07:18:58 0° 355° (N) 2,898 ? -19.8°
Reaches altitude 10° 07:22:38 10° 322° (NW) 1,985 ? -19.9°
Maximum altitude 07:24:01 11° 303° (WNW) 1,887 ? -19.9°
Drops below altitude 10° 07:25:25 10° 284° (WNW) 1,979 ? -19.9°
Enters shadow 07:28:45 - 253° (WSW) 2,778 ? -19.9°
